Location: Gwatt
(46.7204°N, 7.6223°E)
Time: 19:14:40
(UTC+00:00)

Transit 2A - Pass Details

Date: 24 January 2021
Orbit: 600 x 958 km, 66.7° (Epoch: 26 February)

Event Time Altitude Azimuth Distance (km) Brightness Sun altitude
Rises 02:25:13 0° 181° (S) 3,520 - -46.8°
Reaches altitude 10° 02:28:04 10° 171° (S) 2,536 - -46.3°
Maximum altitude 02:33:05 30° 112° (ESE) 1,462 - -45.5°
Exits shadow 02:37:33 11° 54° (NE) 2,290 9.0 -44.8°
Drops below altitude 10° 02:37:44 10° 53° (NE) 2,347 9.1 -44.8°
Sets 02:40:16 0° 43° (NE) 3,218 9.9 -44.4°
